When you browse on this site, cookies collect data to enhance your experience and personalize the content and advertising you see.
Visit our Privacy Policy to learn more. By continuing to use the site, you agree to this use of cookies and data.

Hourly Weather Zahozhe

Today, 12 August, Wednesday

Time Temperature Precipitation Wind Pressure Humidity
00:00 +12°C° 0.1 mm 3 mps 746 mmHg 92%
01:00 +12°C° 0.1 mm 3 mps 746 mmHg 93%
02:00 +12°C° 0.1 mm 3 mps 746 mmHg 95%
03:00 +12°C° 0.1 mm 3 mps 746 mmHg 95%
04:00 +12°C° 0.1 mm 3 mps 746 mmHg 95%
05:00 +12°C° 0.1 mm 3 mps 746 mmHg 96%
06:00 +12°C° 0.1 mm 3 mps 746 mmHg 95%
07:00 +12°C° 0.1 mm 4 mps 746 mmHg 95%
08:00 +12°C° 0.1 mm 4 mps 746 mmHg 94%
09:00 +12°C° 0.1 mm 4 mps 746 mmHg 92%
10:00 +13°C° 0.1 mm 4 mps 746 mmHg 91%
11:00 +13°C° 0.1 mm 5 mps 747 mmHg 89%
12:00 +14°C° 0.1 mm 4 mps 747 mmHg 84%
13:00 +14°C° 0.1 mm 4 mps 747 mmHg 80%
14:00 +15°C° 0.1 mm 4 mps 747 mmHg 75%
15:00 +15°C° 0.2 mm 4 mps 747 mmHg 76%
16:00 +16°C° 0.2 mm 3 mps 747 mmHg 78%
17:00 +16°C° 0.2 mm 3 mps 747 mmHg 80%
18:00 +15°C° 0.1 mm 2 mps 747 mmHg 82%
19:00 +14°C° 0.1 mm 2 mps 747 mmHg 85%
20:00 +13°C° 0.1 mm 1 mps 747 mmHg 87%
21:00 +12°C° 0 mm 2 mps 747 mmHg 88%
22:00 +10°C° 0 mm 2 mps 747 mmHg 90%
23:00 +9°C° 0 mm 2 mps 747 mmHg 91%

Tomorrow, 13 August, Thursday

Time Temperature Precipitation Wind Pressure Humidity
00:00 +8°C° 0 mm 2 mps 747 mmHg 92%
01:00 +8°C° 0 mm 2 mps 747 mmHg 93%
02:00 +7°C° 0 mm 2 mps 747 mmHg 94%
03:00 +7°C° 0 mm 2 mps 747 mmHg 93%
04:00 +7°C° 0 mm 2 mps 747 mmHg 92%
05:00 +8°C° 0 mm 2 mps 747 mmHg 91%
06:00 +9°C° 0 mm 2 mps 747 mmHg 86%
07:00 +11°C° 0 mm 3 mps 747 mmHg 80%
08:00 +12°C° 0 mm 3 mps 747 mmHg 75%
09:00 +14°C° 0 mm 3 mps 747 mmHg 66%
10:00 +16°C° 0 mm 3 mps 747 mmHg 58%
11:00 +17°C° 0 mm 3 mps 747 mmHg 49%
12:00 +17°C° 0 mm 3 mps 747 mmHg 51%
13:00 +17°C° 0 mm 4 mps 747 mmHg 54%
14:00 +17°C° 0 mm 4 mps 747 mmHg 56%
15:00 +16°C° 0 mm 3 mps 747 mmHg 59%
16:00 +16°C° 0 mm 3 mps 747 mmHg 61%
17:00 +15°C° 0 mm 2 mps 746 mmHg 64%
18:00 +14°C° 0 mm 2 mps 747 mmHg 69%
19:00 +13°C° 0 mm 2 mps 747 mmHg 74%
20:00 +12°C° 0 mm 2 mps 747 mmHg 79%
21:00 +10°C° 0 mm 2 mps 747 mmHg 83%
22:00 +9°C° 0 mm 2 mps 747 mmHg 87%
23:00 +8°C° 0 mm 2 mps 747 mmHg 91%

Day after tomorrow, 14 August, Friday

Time Temperature Precipitation Wind Pressure Humidity
00:00 +8°C° 0 mm 2 mps 747 mmHg 93%
01:00 +7°C° 0 mm 2 mps 747 mmHg 94%
02:00 +7°C° 0 mm 2 mps 747 mmHg 95%
03:00 +7°C° 0 mm 2 mps 747 mmHg 95%
04:00 +7°C° 0 mm 2 mps 748 mmHg 95%
05:00 +7°C° 0 mm 2 mps 748 mmHg 95%
06:00 +9°C° 0 mm 2 mps 748 mmHg 85%
07:00 +11°C° 0 mm 3 mps 748 mmHg 75%
08:00 +13°C° 0 mm 3 mps 748 mmHg 66%
09:00 +14°C° 0 mm 3 mps 748 mmHg 60%
10:00 +17°C° 0 mm 3 mps 748 mmHg 55%
11:00 +18°C° 0 mm 3 mps 748 mmHg 50%
12:00 +18°C° 0 mm 3 mps 748 mmHg 49%
13:00 +19°C° 0 mm 3 mps 748 mmHg 49%
14:00 +19°C° 0 mm 3 mps 748 mmHg 49%
15:00 +19°C° 0 mm 2 mps 748 mmHg 53%
16:00 +19°C° 0 mm 2 mps 748 mmHg 58%
17:00 +19°C° 0 mm 2 mps 748 mmHg 62%
18:00 +17°C° 0.1 mm 2 mps 748 mmHg 70%
19:00 +15°C° 0.1 mm 1 mps 748 mmHg 78%
20:00 +13°C° 0.1 mm 1 mps 748 mmHg 86%
21:00 +12°C° 0 mm 1 mps 748 mmHg 88%
22:00 +11°C° 0 mm 1 mps 748 mmHg 89%
23:00 +11°C° 0 mm 1 mps 749 mmHg 91%

15 August, Saturday

Time Temperature Precipitation Wind Pressure Humidity
00:00 +11°C° 0 mm 1 mps 749 mmHg 92%
01:00 +10°C° 0 mm 1 mps 749 mmHg 92%
02:00 +10°C° 0 mm 1 mps 749 mmHg 93%
03:00 +10°C° 0 mm 1 mps 749 mmHg 93%
04:00 +10°C° 0 mm 1 mps 749 mmHg 93%
05:00 +10°C° 0 mm 1 mps 749 mmHg 92%
06:00 +12°C° 0 mm 1 mps 749 mmHg 86%
07:00 +14°C° 0 mm 1 mps 749 mmHg 80%
08:00 +16°C° 0 mm 2 mps 749 mmHg 74%
09:00 +17°C° 0 mm 2 mps 749 mmHg 67%
10:00 +18°C° 0 mm 2 mps 749 mmHg 61%
11:00 +20°C° 0 mm 2 mps 749 mmHg 55%
12:00 +20°C° 0 mm 2 mps 749 mmHg 53%
13:00 +21°C° 0 mm 2 mps 749 mmHg 52%
14:00 +21°C° 0 mm 2 mps 749 mmHg 50%
15:00 +22°C° 0 mm 1 mps 749 mmHg 54%
16:00 +21°C° 0 mm 1 mps 749 mmHg 58%
17:00 +21°C° 0 mm 1 mps 749 mmHg 62%
18:00 +19°C° 0 mm 1 mps 749 mmHg 69%
19:00 +15°C° 0 mm 0 mps 749 mmHg 75%
20:00 +13°C° 0 mm 0 mps 749 mmHg 82%
21:00 +12°C° 0 mm 0 mps 749 mmHg 83%
22:00 +12°C° 0 mm 0 mps 749 mmHg 84%
23:00 +12°C° 0 mm 1 mps 749 mmHg 85%

16 August, Sunday

Time Temperature Precipitation Wind Pressure Humidity
00:00 +12°C° 0 mm 1 mps 749 mmHg 85%
01:00 +12°C° 0 mm 1 mps 749 mmHg 86%
02:00 +12°C° 0 mm 1 mps 749 mmHg 86%
03:00 +12°C° 0 mm 1 mps 749 mmHg 87%
04:00 +12°C° 0 mm 1 mps 749 mmHg 87%
05:00 +12°C° 0 mm 1 mps 749 mmHg 88%
06:00 +13°C° 0 mm 1 mps 749 mmHg 83%
07:00 +15°C° 0 mm 1 mps 749 mmHg 79%
08:00 +16°C° 0 mm 1 mps 749 mmHg 74%
09:00 +19°C° 0 mm 1 mps 749 mmHg 67%
10:00 +21°C° 0 mm 1 mps 749 mmHg 60%
11:00 +23°C° 0 mm 1 mps 749 mmHg 53%
12:00 +24°C° 0 mm 1 mps 749 mmHg 51%
13:00 +25°C° 0 mm 1 mps 749 mmHg 50%
14:00 +25°C° 0 mm 1 mps 748 mmHg 48%
15:00 +24°C° 0 mm 1 mps 748 mmHg 56%
16:00 +23°C° 0 mm 1 mps 748 mmHg 65%
17:00 +21°C° 0 mm 1 mps 748 mmHg 73%
18:00 +20°C° 0 mm 1 mps 748 mmHg 77%
19:00 +19°C° 0 mm 1 mps 748 mmHg 82%
20:00 +17°C° 0 mm 2 mps 747 mmHg 87%
21:00 +17°C° 0.1 mm 2 mps 747 mmHg 89%
22:00 +16°C° 0.1 mm 2 mps 747 mmHg 91%
23:00 +16°C° 0.1 mm 2 mps 747 mmHg 93%

17 August, Monday

Time Temperature Precipitation Wind Pressure Humidity
00:00 +16°C° 0 mm 2 mps 747 mmHg 94%
01:00 +15°C° 0 mm 2 mps 747 mmHg 95%
02:00 +15°C° 0 mm 2 mps 747 mmHg 97%
03:00 +15°C° 0 mm 2 mps 747 mmHg 96%
04:00 +15°C° 0 mm 2 mps 747 mmHg 96%
05:00 +15°C° 0 mm 2 mps 747 mmHg 96%
06:00 +16°C° 0 mm 2 mps 747 mmHg 90%
07:00 +18°C° 0 mm 2 mps 747 mmHg 83%
08:00 +20°C° 0 mm 2 mps 747 mmHg 77%
09:00 +21°C° 0 mm 2 mps 747 mmHg 69%
10:00 +24°C° 0 mm 2 mps 747 mmHg 61%
11:00 +26°C° 0 mm 2 mps 747 mmHg 53%
12:00 +26°C° 0 mm 2 mps 747 mmHg 51%
13:00 +27°C° 0 mm 3 mps 747 mmHg 49%
14:00 +27°C° 0 mm 3 mps 747 mmHg 47%
15:00 +27°C° 0 mm 2 mps 746 mmHg 53%
16:00 +26°C° 0 mm 2 mps 746 mmHg 59%
17:00 +25°C° 0 mm 2 mps 746 mmHg 65%
18:00 +23°C° 0 mm 2 mps 746 mmHg 74%
19:00 +20°C° 0 mm 2 mps 746 mmHg 83%
20:00 +18°C° 0 mm 2 mps 746 mmHg 91%
21:00 +18°C° 0 mm 2 mps 746 mmHg 92%
22:00 +17°C° 0 mm 2 mps 746 mmHg 94%
23:00 +17°C° 0 mm 2 mps 746 mmHg 95%
Show more